This is the latest recevied weather packets stored in our database for station/object W4MLN-1. If no packets are shown the sender has not sent any weather packets the latest 10 day(s).
| Time | Temp. | Humidity | Pressure | Rain* | Wind** | Luminosity | Snow |
|---|---|---|---|---|---|---|---|
| 1777819882 | 7.78° C | 43% | 1018.6 hPa | 0 mm | - | 782 W/m² | - |
| 1777819582 | 7.22° C | 42% | 1018.6 hPa | 0 mm | - | 770 W/m² | - |
| 1777819280 | 7.22° C | 42% | 1018.7 hPa | 0 mm | - | 754 W/m² | - |
| 1777818977 | 7.22° C | 43% | 1018.6 hPa | 0 mm | - | 739 W/m² | - |
| 1777818677 | 7.22° C | 42% | 1018.5 hPa | 0 mm | - | 723 W/m² | - |
| 1777818376 | 7.22° C | 44% | 1018.6 hPa | 0 mm | - | 706 W/m² | - |
| 1777818077 | 7.22° C | 42% | 1018.6 hPa | 0 mm | - | 690 W/m² | - |
| 1777817776 | 6.67° C | 44% | 1018.6 hPa | 0 mm | - | 675 W/m² | - |
| 1777817477 | 6.67° C | 45% | 1018.7 hPa | 0 mm | - | 658 W/m² | - |
| 1777817178 | 6.67° C | 44% | 1018.6 hPa | 0 mm | - | 641 W/m² | - |
| 1777816877 | 6.67° C | 46% | 1018.7 hPa | 0 mm | - | 623 W/m² | - |
| 1777816578 | 6.11° C | 46% | 1018.6 hPa | 0 mm | - | 605 W/m² | - |
| 1777816278 | 6.11° C | 46% | 1018.7 hPa | 0 mm | - | 588 W/m² | - |
| 1777815978 | 6.11° C | 48% | 1018.7 hPa | 0 mm | - | 562 W/m² | - |
| 1777815677 | 6.11° C | 51% | 1018.7 hPa | 0 mm | - | 538 W/m² | - |
| 1777815375 | 6.11° C | 52% | 1018.6 hPa | 0 mm | - | 517 W/m² | - |
| 1777815072 | 5.56° C | 52% | 1018.7 hPa | 0 mm | - | 501 W/m² | - |
| 1777814772 | 5.56° C | 51% | 1018.6 hPa | 0 mm | - | 385 W/m² | - |
| 1777814472 | 5.56° C | 55% | 1018.6 hPa | 0 mm | - | 173 W/m² | - |
| 1777814172 | 5° C | 54% | 1018.6 hPa | 0 mm | - | 150 W/m² | - |
| 1777813872 | 5° C | 57% | 1018.6 hPa | 0 mm | - | 90 W/m² | - |
| 1777813572 | 5° C | 59% | 1018.5 hPa | 0 mm | - | 130 W/m² | - |
| 1777813272 | 4.44° C | 60% | 1018.5 hPa | 0 mm | - | 89 W/m² | - |
| 1777812972 | 4.44° C | 62% | 1018.6 hPa | 0 mm | - | 169 W/m² | - |
| 1777812673 | 4.44° C | 63% | 1018.6 hPa | 0 mm | - | 84 W/m² | - |
* Rain latest hour (hover to see other rain measurements)
** Current wind speed in m/s (hover to see current wind gust speed)